Regional Weather Roundup
Issued by NWS

Home | Current Version | Previous Version | Text Only | Print | Product List | Glossary Off
Versions: 1 2 3 4 5 6 7 8 9 10 11 12 13 14 15 16 17 18 19 20 21 22 23 24 25 26 27 28 29 30 31 32 33 34 35 36 37 38 39 40 41 42 43 44 45 46 47 48 49 50

000
ASUS44 KMEG 010410
RWRTN
TENNESSEE HOURLY STATE WEATHER ROUNDUP
NATIONAL WEATHER SERVICE MEMPHIS TN
1000 PM CST SAT JAN 31 2015

TNZ002-004-019-021-049-052-054-088>092-010500-
WEST TENNESSEE

CITY           SKY/WX    TMP DP  RH WIND       PRES   REMARKS
MEMPHIS INTL   CLOUDY    47  25  42 SE9       30.10F
NWS MEMPHIS      N/A     45 N/A N/A MISG        N/A
JACKSON        CLOUDY    46  20  35 VRB7      30.14F
DYERSBURG      CLOUDY    45  18  33 SE13G18   30.11F
UNION CITY     CLEAR     43  21  42 CALM      30.11R
PARIS          CLOUDY    41  18  38 SE14      30.12F
LEXINGTON      PTCLDY    45  16  31 SE6       30.15F
SAVANNAH       MOCLDY    46  18  31 SE3       30.17S
$$

TNZ008-025-027-028-033-062-065-066-010500-
NORTH MIDDLE TENNESSEE

CITY           SKY/WX    TMP DP  RH WIND       PRES   REMARKS
NASHVILLE      CLOUDY    40  22  48 S5        30.21F
CLARKSVILLE    CLOUDY    42  18  37 SE7       30.18F
SMYRNA         CLOUDY    39  26  60 CALM      30.23F
COOKEVILLE     CLEAR     43  12  28 CALM      30.21F
CROSSVILLE     CLOUDY    39  10  30 N3        30.23F
$$

TNZ061-075-076-078-094-096-097-010500-
SOUTH MIDDLE TENNESSEE

CITY           SKY/WX    TMP DP  RH WIND       PRES   REMARKS
FAYETTEVILLE   CLEAR     43  18  36 MISG      30.20F
TULLAHOMA      MOCLDY    43  14  31 SE3       30.22F
WINCHESTER     PTCLDY    43  16  33 SE9       30.22F
MCMINNVILLE    CLEAR     37  27  65 W3        30.22F
COLUMBIA       MOCLDY    41  27  56 CALM      30.18S
SHELBYVILLE    PTCLDY    45  19  36 SE7       30.22F
$$

TNZ017-018-042-046-047-010500-
NORTHEAST TENNESSEE

CITY           SKY/WX    TMP DP  RH WIND       PRES   REMARKS
TRI CITIES     CLOUDY    33  19  56 CALM      30.26F
ELIZABETHTON   CLEAR     28  19  69 CALM      30.26S
$$

TNZ012-013-036-069-073-074-010500-
CENTRAL EAST TENNESSEE

CITY           SKY/WX    TMP DP  RH WIND       PRES   REMARKS
KNOXVILLE      CLOUDY    38  22  52 CALM      30.26F
OAK RIDGE      CLOUDY    40  22  48 CALM      30.27F
GATLINBURG     PTCLDY    36  21  55 CALM      30.26S
MORRISTOWN     CLEAR     37  21  52 E3        30.25F
$$

TNZ083-085-099-010500-
SOUTHEAST TENNESSEE

CITY           SKY/WX    TMP DP  RH WIND       PRES   REMARKS
CHATTANOOGA    CLOUDY    40  26  57 NW3       30.28F
$$

SKY/WX REPORTED AS FAIR MEANS FEW OR NO CLOUDS BELOW
12 THOUSAND FEET.




USA.gov is the U.S. government's official web portal to all federal, state and local government web resources and services.